Total_Precipitation_Accumulation
0.24 0.30 0.55 0.70 1.08 1.94 2.61 2.30 2.49 2.55 1.73 1.06 0.58 0.42 0.37 0.23 0.13 0.08 0.12 0.11 0.06 0.09
0.26 0.24 0.27 0.38 0.78 1.01 0.97 1.21 1.51 1.57 1.23 1.39 1.52 1.05 0.64 0.50 0.47 0.40 0.19 0.07 0.08 0.08
0.36 0.28 0.25 0.18 0.25 0.57 1.06 1.12 0.93 0.82 0.65 0.64 0.75 0.83 0.45 0.28 0.29 0.32 0.29 0.22 0.22 0.21
0.34 0.47 0.27 0.20 0.17 0.34 0.48 0.72 0.75 0.67 0.52 0.43 0.35 0.31 0.22 0.14 0.12 0.18 0.21 0.25 0.24 0.27
0.31 0.30 0.33 0.27 0.22 0.20 0.24 0.29 0.37 0.43 0.46 0.35 0.24 0.19 0.17 0.16 0.14 0.14 0.17 0.21 0.21 0.19
0.26 0.22 0.26 0.39 0.36 0.25 0.30 0.31 0.30 0.30 0.31 0.28 0.23 0.20 0.20 0.24 0.19 0.20 0.21 0.24 0.26 0.25
0.33 0.24 0.27 0.34 0.38 0.35 0.31 0.36 0.38 0.33 0.30 0.32 0.27 0.19 0.18 0.16 0.15 0.17 0.22 0.25 0.26 0.27
0.14 0.13 0.20 0.32 0.32 0.28 0.32 0.35 0.34 0.31 0.29 0.31 0.30 0.31 0.22 0.15 0.14 0.17 0.20 0.25 0.30 0.34
0.08 0.06 0.11 0.16 0.23 0.23 0.22 0.27 0.38 0.50 0.59 0.53 0.40 0.48 0.31 0.31 0.28 0.26 0.24 0.24 0.25 0.31
0.04 0.11 0.13 0.20 0.28 0.29 0.30 0.32 0.29 0.32 0.43 0.69 0.84 0.90 0.81 0.69 0.50 0.48 0.53 0.57 0.54 0.44
0.08 0.12 0.25 0.28 0.30 0.41 0.44 0.39 0.43 0.45 0.35 0.25 0.30 0.44 0.56 0.75 0.88 0.98 0.87 0.80 0.74 0.77
0.15 0.18 0.17 0.35 0.49 0.48 0.50 0.63 0.67 0.61 0.61 0.49 0.34 0.35 0.38 0.41 0.33 0.38 0.42 0.39 0.37 0.39
0.29 0.28 0.42 0.48 0.56 0.77 0.82 0.70 0.74 0.77 0.74 0.74 0.63 0.73 0.78 0.76 0.67 0.65 0.58 0.46 0.37 0.44
0.17 0.22 0.31 0.43 0.50 0.64 0.89 1.01 0.95 0.89 0.84 0.75 0.77 0.81 0.90 1.07 1.03 0.93 0.73 0.63 0.59 0.61